Regional Weather Roundup
Issued by NWS

Home | Current Version | Previous Version | Text Only | Print | Product List | Glossary Off
Versions: 1 2 3 4 5 6 7 8 9 10 11 12 13 14 15 16 17 18 19 20 21 22 23 24 25 26 27 28 29 30 31 32 33 34 35 36 37 38 39 40 41 42 43 44 45 46 47 48 49 50

782
ASUS43 KFSD 282002
RWRSD

WEATHER ROUNDUP FOR SOUTH DAKOTA
NATIONAL WEATHER SERVICE SIOUX FALLS SD
300 PM CDT FRI APR 28 2017

NOTE: "FAIR" INDICATES FEW OR NO CLOUDS BELOW 12,000 FEET WITH NO
SIGNIFICANT WEATHER AND/OR OBSTRUCTIONS TO VISIBILITY.


SDZ001>005-009-010-012>017-282100-
NORTHWEST AND NORTH CENTRAL SOUTH DAKOTA

CITY           SKY/WX    TMP DP  RH WIND       PRES   REMARKS
BUFFALO          N/A     50  23  34 NE14      29.96R
FAITH            N/A     49  26  41 VRB7G20   30.00R
MOBRIDGE       MOSUNNY   56  14  19 NE10      30.00R
$$

SDZ012>016-024>037-041>051-057-063-072>074-282100-
SOUTHWEST AND SOUTH CENTRAL SOUTH DAKOTA

CITY           SKY/WX    TMP DP  RH WIND       PRES   REMARKS
RAPID CTY ARPT CLOUDY    46  27  47 NE14G22   29.99R
PIERRE         CLOUDY    52  24  33 NE18      29.97R
CUSTER         CLOUDY    32  22  66 NE15G23   29.92R WCI  22
ELLSWORTH AFB  CLOUDY    44  27  49 NE8       29.99R
PHILIP         CLOUDY    49  29  46 NE16G24   30.00R
PINE RIDGE     CLOUDY    43  30  60 NE17G23   29.94R
SPEARFISH      FAIR      41  25  52 E10G17    30.00R
WINNER         FAIR      52  27  38 NE13G21   29.97R
$$

SDZ004>011-016>023-039-040-282100-
NORTHEAST SOUTH DAKOTA

CITY           SKY/WX    TMP DP  RH WIND       PRES   REMARKS
ABERDEEN       MOSUNNY   52  17  25 NE15      30.02R
WATERTOWN      MOSUNNY   49  23  36 NE17G28   29.97R
BROOKINGS      CLOUDY    47  27  45 NE18      29.95S
SISSETON         N/A     52  24  33 NE15      30.00R
$$

SDZ017-020-022-023-036>040-048>070-282100-
SOUTHEAST SOUTH DAKOTA

CITY           SKY/WX    TMP DP  RH WIND       PRES   REMARKS
SIOUX FALLS    CLOUDY    48  33  56 NE14      29.95R
HURON          PTSUNNY   53  25  33 NE23G30   29.97R
CHAMBERLAIN    MOSUNNY   52  27  39 N14       29.97R
MITCHELL       CLOUDY    51  28  41 NE16      29.97R
YANKTON        CLOUDY    45  28  53 N13       29.93S
$$

ABBREVIATIONS USED IN REMARKS
   TC - TEMPERATURE IN CELSIUS
  WCI - WIND CHILL INDEX
   HX - HEAT INDEX
  VSB - VISIBILITY





USA.gov is the U.S. government's official web portal to all federal, state and local government web resources and services.